This demonstration page uses our WeatherBlox Daily Observations layout. Learn more.

Left ArrowRight Arrow

38.83388, -104.82136

Hourly Observations for January 11, 2015

Temp ( °F °C ) Dew Point ( °F °C ) Humidity (%) Winds ( mph kmh ) Pressure ( in mb ) Visibility ( mi km ) Precip ( " mm )
12:56 am 00:56 Clear 34 1.3 19 -7 54 54 NW 7 11 29.91 1013 10 16 N/A
1:56 am 01:56 Clear 37 2.5 17 -8.1 46 46 W 6 9 29.88 1012 10 16 N/A
2:56 am 02:56 Clear 37 2.7 18 -7.7 47 47 WNW 5 7 29.87 1012 10 16 N/A
4:56 am 04:56 Mostly Cloudy 38 3.5 20 -6.9 47 47 WNW 6 9 29.84 1011 10 16 0.00 0.00
5:56 am 05:56 Mostly Cloudy 39 3.7 19 -7.3 45 45 VRB 1 2 29.86 1011 10 16 N/A
6:56 am 06:56 Cloudy 41 4.8 17 -8.1 39 39 SSW 6 9 29.87 1011 10 16 N/A
7:56 am 07:56 Cloudy 40 4.6 20 -6.5 45 45 NNW 6 9 29.89 1012 10 16 N/A
8:56 am 08:56 Mostly Cloudy 43 6 20 -6.5 41 41 VRB 1 2 29.91 1013 10 16 N/A
9:56 am 09:56 Mostly Cloudy 44 6.9 20 -6.6 38 38 VRB 1 2 29.92 1013 10 16 N/A
10:56 am 10:56 Mostly Cloudy 44 6.6 20 -6.4 39 39 NNW 7 11 29.92 1013 10 16 N/A
11:56 am 11:56 Mostly Cloudy 45 7 24 -4.4 44 44 N 10 17 29.92 1013 10 16 N/A
12:56 pm 12:56 Mostly Cloudy 43 6.3 27 -2.6 53 53 NNW 10 17 29.94 1014 10 16 N/A
1:56 pm 13:56 Mostly Cloudy 42 5.6 29 -1.7 60 60 N 12 19 29.96 1015 10 16 N/A
2:56 pm 14:56 Mostly Cloudy 42 5.3 29 -1.4 62 62 NW 5 7 29.98 1015 10 16 N/A
3:56 pm 15:56 Mostly Cloudy 39 3.7 29 -1.9 67 67 NNW 13 20 30.00 1016 10 16 N/A
4:02 pm 16:02 Mostly Cloudy with Light Rain 37 3 28 -2 70 70 N 15 24 29.97 1015 10 16 N/A
4:22 pm 16:22 Cloudy with Light Rain/Snow 37 3 30 -1 75 75 NNW 12 19 30.00 1016 10 16 N/A
4:32 pm 16:32 Cloudy with Light Snow Showers 36 2 30 -1 81 81 NW 12 19 30.03 1017 2 4 N/A
4:56 pm 16:56 Cloudy with Light Rain/Snow 36 2 30 -1.1 80 80 NW 14 22 30.06 1018 3 5 N/A
5:01 pm 17:01 Mostly Cloudy with Light Rain/Snow 36 2 30 -1 81 81 NNW 15 24 30.06 1018 2 2 N/A
5:11 pm 17:11 Mostly Cloudy with Light Rain/Snow 34 1 32 0 93 93 N 15 24 30.09 1019 5 8 N/A
5:36 pm 17:36 Mostly Cloudy with Snow 32 0 32 0 100 100 NW 9 15 30.12 1020 5 8 N/A
5:47 pm 17:47 Mostly Cloudy with Snow 34 1 32 0 93 93 NNW 8 13 30.09 1019 7 11 N/A
6:11 pm 18:11 Cloudy with Light Snow 32 0 32 0 100 100 NW 8 13 30.12 1020 5 8 N/A
6:32 pm 18:32 Mostly Cloudy with Snow 32 0 32 0 100 100 NNW 9 15 30.15 1021 3 5 N/A
6:56 pm 18:56 Mostly Cloudy with Heavy Snow 32 0.1 32 -0.1 99 99 NNW 9 15 30.14 1021 5 8 0.02 0.51
7:01 pm 19:01 Cloudy with Heavy Snow 32 0 32 0 100 100 NNW 9 15 30.15 1021 3 5 N/A
7:16 pm 19:16 Cloudy with Snow 32 0 32 0 100 100 N 7 11 30.15 1021 2 2 N/A
7:31 pm 19:31 Cloudy with Snow 32 0 32 0 100 100 NW 9 15 30.15 1021 3 5 N/A
7:56 pm 19:56 Cloudy with Snow 32 0.1 31 -0.5 96 96 N 13 20 30.16 1022 1 2 0.02 0.51
8:06 pm 20:06 Cloudy with Light Snow 32 0 30 -1 93 93 N 15 24 30.21 1023 4 6 N/A
8:56 pm 20:56 Cloudy with Light Snow 31 -0.7 30 -1.2 96 96 NNW 9 15 30.20 1023 7 11 0.02 0.51
9:03 pm 21:03 Cloudy with Light Snow 30 -1 30 -1 100 100 NNW 9 15 30.21 1023 5 8 N/A
9:39 pm 21:39 Cloudy 30 -1 30 -1 100 100 NNW 7 11 30.27 1025 4 6 N/A
9:56 pm 21:56 Cloudy with Light Snow 30 -1 30 -1.3 98 98 N 6 9 30.20 1023 4 6 0.02 0.51
10:01 pm 22:01 Cloudy with Light Snow 30 -1 30 -1 100 100 N 5 7 30.27 1025 4 6 N/A
10:06 pm 22:06 Cloudy with Light Snow 30 -1 30 -1 100 100 N 5 7 30.27 1025 3 5 N/A
10:11 pm 22:11 Cloudy with Light Snow 30 -1 30 -1 100 100 N 3 6 30.27 1025 2 3 N/A
10:21 pm 22:21 Cloudy with Light Snow 30 -1 30 -1 100 100 N 3 6 30.27 1025 1 2 N/A
10:36 pm 22:36 Mostly Cloudy with Snow 28 -2 28 -2 100 100 SSE 7 11 30.30 1026 1 2 N/A
10:56 pm 22:56 Mostly Cloudy with Snow 28 -2.2 28 -2.2 100 100 SE 9 15 30.23 1024 1 2 0.02 0.51
11:40 pm 23:40 Mostly Cloudy with Heavy Snow 27 -3 27 -3 100 100 S 10 17 30.33 1027 3 5 N/A
11:56 pm 23:56 Mostly Cloudy with Snow 27 -3 27 -2.9 100 100 S 8 13 30.23 1024 5 8 0.03 0.76

Powered by AerisWeather